Starlink 1371

operational
NORAD ID: 45542 Int'l Des: 2020-025 Owner: SPXS Country: US Constellation: starlink
LEOCIRCULARSTARLINK_TYPE

About Starlink 1371

Description loading...

Live Position

Loading 3D Globe...

Upcoming Passes

Altitude History

Altitude vs Time

uPlot chart will show altitude changes over time

Two-Line Element Set

1 45542U 20025M 26033.35025694 .00085918 00000-0 19613-2 0 9990
2 45542 53.0518 257.5708 0004699 132.9978 227.1421 15.42156503319874
Epoch: Feb 2, 2026 • Age: 29 hours

Current Status

Altitude 447.5 km
Velocity 7.64 km/s
Sub-Earth Point -29.44°S, 122.98°E
Launch Date Apr 22, 2020
Age 5.7 years
Type internet

Technical Details

Classification Payload
Mass 260.00 kg
Dry Mass 248.00 kg
Total Mass 260.00 kg
Length 0.20 m
Diameter 2.80 m
Span 9.00 m
Shape Box + pan
Manufacturer SPXS
Bus Type Starlink
Phase Status In Orbit
Owner/State SPXS/US

Large Constellations

Loading constellations...